ACA598 CYUL-CYYZ

Flight info

Callsign ACA598
Flight time 1h 0m
Altitude 33000
Route CYUL5/24L BOBKI DCT MELTI DCT TORNI RAGID6
Aircraft A20N/M-SDE2E3FGHIRWXY/LB1

Departure

Time 2026-05-07 01:30
Airport Montreal / Pierre Elliott Trudeau International Airport (CYUL)

Arrival

Time 2026-05-07 02:30
Airport Toronto Pearson International Airport (CYYZ)
Time Latitude Longitude Altitude Speed Heading
2026-05-07 00:51 45.46416 -73.75463 108 ft 0 kts 357°
2026-05-07 01:12 45.46396 -73.75462 99 ft 3 kts 357°
2026-05-07 01:13 45.46374 -73.75460 107 ft 3 kts 357°
2026-05-07 01:13 45.46352 -73.75459 108 ft 3 kts 357°
2026-05-07 01:13 45.46333 -73.75458 107 ft 0 kts 357°
2026-05-07 01:14 45.46332 -73.75458 107 ft 0 kts 357°
2026-05-07 01:16 45.46329 -73.75457 107 ft 1 kts 358°
2026-05-07 01:16 45.46319 -73.75457 107 ft 0 kts 358°
2026-05-07 01:20 45.46320 -73.75457 107 ft 0 kts 358°
2026-05-07 01:21 45.46348 -73.75459 108 ft 0 kts 357°
2026-05-07 01:22 45.46360 -73.75459 108 ft 0 kts
2026-05-07 01:22 45.46378 -73.75456 108 ft 3 kts
2026-05-07 01:22 45.46381 -73.75449 107 ft 1 kts 54°
2026-05-07 01:23 45.46368 -73.75420 108 ft 11 kts 121°
2026-05-07 01:23 45.46370 -73.75256 105 ft 22 kts 90°
2026-05-07 01:23 45.46313 -73.75077 107 ft 26 kts 98°
2026-05-07 01:23 45.46319 -73.74923 107 ft 0 kts 86°
2026-05-07 01:24 45.46319 -73.74921 107 ft 3 kts 86°
2026-05-07 01:24 45.46323 -73.74827 105 ft 0 kts 87°
2026-05-07 01:24 45.46328 -73.74763 105 ft 0 kts 93°
2026-05-07 01:24 45.46326 -73.74681 106 ft 18 kts 91°
2026-05-07 01:25 45.46326 -73.74479 109 ft 24 kts 86°
2026-05-07 01:25 45.46340 -73.74159 108 ft 38 kts 88°
2026-05-07 01:25 45.46347 -73.73867 108 ft 31 kts 89°
2026-05-07 01:25 45.46375 -73.73732 108 ft 3 kts 32°
2026-05-07 01:26 45.46420 -73.73687 110 ft 12 kts 36°
2026-05-07 01:26 45.46507 -73.73578 111 ft 22 kts 37°
2026-05-07 01:26 45.46636 -73.73399 110 ft 29 kts 39°
2026-05-07 01:26 45.46726 -73.73295 112 ft 23 kts 38°
2026-05-07 01:27 45.46847 -73.73132 112 ft 25 kts 43°
2026-05-07 01:27 45.46983 -73.72964 118 ft 27 kts 40°
2026-05-07 01:27 45.47085 -73.72820 120 ft 21 kts 43°
2026-05-07 01:27 45.47186 -73.72689 121 ft 21 kts 44°
2026-05-07 01:28 45.47306 -73.72530 119 ft 26 kts 43°
2026-05-07 01:28 45.47445 -73.72344 118 ft 29 kts 42°
2026-05-07 01:28 45.47587 -73.72156 123 ft 26 kts 44°
2026-05-07 01:28 45.47722 -73.71979 126 ft 24 kts 42°
2026-05-07 01:29 45.47813 -73.71842 124 ft 13 kts 75°
2026-05-07 01:29 45.47756 -73.71721 122 ft 18 kts 134°
2026-05-07 01:29 45.47703 -73.71654 126 ft 9 kts 163°
2026-05-07 01:29 45.47642 -73.71686 125 ft 11 kts 227°
2026-05-07 01:30 45.47475 -73.71907 122 ft 69 kts 222°
2026-05-07 01:30 45.46959 -73.72579 117 ft 129 kts 223°
2026-05-07 01:30 45.46215 -73.73533 439 ft 145 kts 222°
2026-05-07 01:30 45.45415 -73.74517 1032 ft 164 kts 221°
2026-05-07 01:31 45.44504 -73.75584 1930 ft 169 kts 222°
2026-05-07 01:31 45.43549 -73.76666 2584 ft 194 kts 222°
2026-05-07 01:31 45.42474 -73.77864 3057 ft 196 kts 221°
2026-05-07 01:31 45.41373 -73.79064 3565 ft 202 kts 220°
2026-05-07 01:32 45.40376 -73.80535 3916 ft 215 kts 245°
2026-05-07 01:32 45.40065 -73.82675 4198 ft 234 kts 276°
2026-05-07 01:32 45.40612 -73.84949 4321 ft 254 kts 300°
2026-05-07 01:32 45.41622 -73.87007 4137 ft 252 kts 307°
2026-05-07 01:33 45.42729 -73.88953 3694 ft 254 kts 308°
2026-05-07 01:33 45.43754 -73.91019 3231 ft 254 kts 297°
2026-05-07 01:33 45.44375 -73.93315 3041 ft 243 kts 283°
2026-05-07 01:33 45.44616 -73.95573 3009 ft 229 kts 274°
2026-05-07 01:34 45.44637 -73.97808 3013 ft 224 kts 269°
2026-05-07 01:34 45.44544 -74.00061 3009 ft 225 kts 266°
2026-05-07 01:34 45.44404 -74.02269 3083 ft 223 kts 265°
2026-05-07 01:34 45.44253 -74.04446 3430 ft 225 kts 265°
2026-05-07 01:35 45.44101 -74.06643 4073 ft 235 kts 265°
2026-05-07 01:35 45.43948 -74.08907 4777 ft 255 kts 265°
2026-05-07 01:35 45.43777 -74.11475 5506 ft 264 kts 265°
2026-05-07 01:35 45.43604 -74.14103 6252 ft 269 kts 265°
2026-05-07 01:36 45.43428 -74.16770 6954 ft 270 kts 265°
2026-05-07 01:36 45.43253 -74.19434 7678 ft 271 kts 264°
2026-05-07 01:36 45.43077 -74.22085 8395 ft 272 kts 264°
2026-05-07 01:36 45.42898 -74.24772 9139 ft 273 kts 264°
2026-05-07 01:37 45.42717 -74.27481 9913 ft 274 kts 264°
2026-05-07 01:37 45.42533 -74.30229 10706 ft 284 kts 264°
2026-05-07 01:37 45.42340 -74.33082 11520 ft 294 kts 264°
2026-05-07 01:37 45.42142 -74.35997 12338 ft 303 kts 264°
2026-05-07 01:38 45.41936 -74.39034 13197 ft 312 kts 263°
2026-05-07 01:38 45.41718 -74.42136 14022 ft 318 kts 262°
2026-05-07 01:38 45.41299 -74.45250 14797 ft 324 kts 256°
2026-05-07 01:38 45.40765 -74.48391 15600 ft 328 kts 256°
2026-05-07 01:39 45.40232 -74.51571 16421 ft 332 kts 256°
2026-05-07 01:39 45.39696 -74.54788 17266 ft 336 kts 255°
2026-05-07 01:39 45.39154 -74.58041 18128 ft 338 kts 255°
2026-05-07 01:39 45.38620 -74.61235 18872 ft 340 kts 255°
2026-05-07 01:40 45.38135 -74.64129 19555 ft 341 kts 255°
2026-05-07 01:40 45.37599 -74.67321 20326 ft 342 kts 255°
2026-05-07 01:40 45.37044 -74.70616 21135 ft 343 kts 255°
2026-05-07 01:40 45.36486 -74.73917 21974 ft 343 kts 254°
2026-05-07 01:41 45.35928 -74.77216 22829 ft 342 kts 254°
2026-05-07 01:41 45.35373 -74.80494 23667 ft 341 kts 254°
2026-05-07 01:41 45.34836 -74.83651 24388 ft 339 kts 254°
2026-05-07 01:41 45.34287 -74.86882 25145 ft 336 kts 253°
2026-05-07 01:42 45.33753 -74.90006 25916 ft 333 kts 253°
2026-05-07 01:42 45.33235 -74.93029 26691 ft 328 kts 253°
2026-05-07 01:42 45.32698 -74.96152 27521 ft 322 kts 253°
2026-05-07 01:42 45.32261 -74.98693 28228 ft 316 kts 253°
2026-05-07 01:43 45.31802 -75.01364 29003 ft 309 kts 252°
2026-05-07 01:43 45.31327 -75.04120 29854 ft 299 kts 252°
2026-05-07 01:43 45.30908 -75.06538 30527 ft 290 kts 252°
2026-05-07 01:43 45.30463 -75.09098 31256 ft 278 kts 253°
2026-05-07 01:44 45.30030 -75.11575 31757 ft 276 kts 253°
2026-05-07 01:44 45.29560 -75.14247 31956 ft 283 kts 253°
2026-05-07 01:44 45.29098 -75.16871 32002 ft 291 kts 253°
2026-05-07 01:44 45.28608 -75.19674 32003 ft 291 kts 253°
2026-05-07 01:45 45.28130 -75.22413 32005 ft 289 kts 253°
2026-05-07 01:45 45.27638 -75.25235 32005 ft 289 kts 253°
2026-05-07 01:45 45.27152 -75.28013 32006 ft 289 kts 253°
2026-05-07 01:45 45.26691 -75.30638 32009 ft 289 kts 253°
2026-05-07 01:46 45.26214 -75.33353 32010 ft 289 kts 253°
2026-05-07 01:46 45.25811 -75.35643 32008 ft 289 kts 253°
2026-05-07 01:46 45.25350 -75.38256 32011 ft 289 kts 253°
2026-05-07 01:46 45.24868 -75.40991 32011 ft 288 kts 253°
2026-05-07 01:47 45.24437 -75.43431 32012 ft 288 kts 253°
2026-05-07 01:47 45.23993 -75.45942 32013 ft 288 kts 253°
2026-05-07 01:47 45.23496 -75.48741 31993 ft 300 kts 253°
2026-05-07 01:47 45.22970 -75.51689 31881 ft 317 kts 253°
2026-05-07 01:48 45.22414 -75.54807 31758 ft 333 kts 253°
2026-05-07 01:48 45.21831 -75.58075 31639 ft 350 kts 254°
2026-05-07 01:48 45.21229 -75.61454 31514 ft 355 kts 254°
2026-05-07 01:48 45.20626 -75.64843 31385 ft 353 kts 253°
2026-05-07 01:49 45.20052 -75.68062 31269 ft 353 kts 253°
2026-05-07 01:49 45.19504 -75.71124 31156 ft 354 kts 253°
2026-05-07 01:49 45.18990 -75.73984 31050 ft 354 kts 253°
2026-05-07 01:49 45.18375 -75.77405 30928 ft 354 kts 253°
2026-05-07 01:50 45.17771 -75.80752 30809 ft 355 kts 253°
2026-05-07 01:50 45.17172 -75.84070 30688 ft 355 kts 253°
2026-05-07 01:50 45.16559 -75.87459 30569 ft 355 kts 253°
2026-05-07 01:50 45.15946 -75.90841 30447 ft 354 kts 253°
2026-05-07 01:51 45.15338 -75.94190 30326 ft 353 kts 253°
2026-05-07 01:51 45.14759 -75.97377 30211 ft 352 kts 253°
2026-05-07 01:51 45.14145 -76.00746 30094 ft 351 kts 253°
2026-05-07 01:51 45.13534 -76.04093 29973 ft 351 kts 253°
2026-05-07 01:52 45.12923 -76.07436 29845 ft 350 kts 253°
2026-05-07 01:52 45.12313 -76.10765 29703 ft 348 kts 253°
2026-05-07 01:52 45.11705 -76.14075 29559 ft 347 kts 253°
2026-05-07 01:52 45.11097 -76.17382 29424 ft 346 kts 253°
2026-05-07 01:53 45.10473 -76.20668 29266 ft 345 kts 251°
2026-05-07 01:53 45.09666 -76.23804 29139 ft 343 kts 246°
2026-05-07 01:53 45.08615 -76.26820 29034 ft 341 kts 240°
2026-05-07 01:54 45.06343 -76.32520 29025 ft 342 kts 241°
2026-05-07 01:54 45.04033 -76.38390 29020 ft 341 kts 241°
2026-05-07 01:55 45.01722 -76.44247 29021 ft 341 kts 241°
2026-05-07 01:55 44.99741 -76.49251 29027 ft 341 kts 241°
2026-05-07 01:56 44.97412 -76.55117 29033 ft 340 kts 241°
2026-05-07 01:56 44.95125 -76.60869 29034 ft 340 kts 241°
2026-05-07 01:56 44.93942 -76.63839 29034 ft 355 kts 241°
2026-05-07 01:57 44.92702 -76.66950 28835 ft 374 kts 241°
2026-05-07 01:57 44.91390 -76.70237 28454 ft 394 kts 241°
2026-05-07 01:57 44.90039 -76.73617 28075 ft 395 kts 241°
2026-05-07 01:57 44.88700 -76.76962 27696 ft 389 kts 241°
2026-05-07 01:58 44.87375 -76.80268 27348 ft 385 kts 240°
2026-05-07 01:58 44.86167 -76.83279 27102 ft 375 kts 240°
2026-05-07 01:58 44.84931 -76.86356 26847 ft 366 kts 240°
2026-05-07 01:58 44.83680 -76.89467 26591 ft 366 kts 240°
2026-05-07 01:59 44.82422 -76.92595 26337 ft 367 kts 240°
2026-05-07 01:59 44.81166 -76.95712 26083 ft 365 kts 240°
2026-05-07 01:59 44.79918 -76.98805 25836 ft 362 kts 240°
2026-05-07 01:59 44.78675 -77.01885 25585 ft 361 kts 240°
2026-05-07 02:00 44.77438 -77.04946 25338 ft 359 kts 240°
2026-05-07 02:00 44.76204 -77.07995 25092 ft 358 kts 240°
2026-05-07 02:00 44.74971 -77.11040 24844 ft 356 kts 240°
2026-05-07 02:00 44.73745 -77.14064 24613 ft 355 kts 240°
2026-05-07 02:01 44.72525 -77.17069 24376 ft 353 kts 240°
2026-05-07 02:01 44.71311 -77.20058 24131 ft 351 kts 240°
2026-05-07 02:01 44.70099 -77.23037 23894 ft 350 kts 240°
2026-05-07 02:01 44.68893 -77.26000 23666 ft 348 kts 240°
2026-05-07 02:02 44.67690 -77.28952 23431 ft 347 kts 240°
2026-05-07 02:02 44.66503 -77.31859 23155 ft 346 kts 240°
2026-05-07 02:02 44.65306 -77.34787 22875 ft 345 kts 240°
2026-05-07 02:02 44.64127 -77.37667 22631 ft 344 kts 240°
2026-05-07 02:03 44.62947 -77.40549 22353 ft 343 kts 240°
2026-05-07 02:03 44.61792 -77.43369 22087 ft 342 kts 240°
2026-05-07 02:03 44.60610 -77.46251 21827 ft 340 kts 240°
2026-05-07 02:03 44.59431 -77.49122 21564 ft 339 kts 240°
2026-05-07 02:04 44.58254 -77.51985 21306 ft 338 kts 240°
2026-05-07 02:04 44.57080 -77.54837 21049 ft 337 kts 240°
2026-05-07 02:04 44.55907 -77.57685 20800 ft 336 kts 240°
2026-05-07 02:04 44.54754 -77.60484 20543 ft 335 kts 240°
2026-05-07 02:05 44.53642 -77.63179 20305 ft 334 kts 240°
2026-05-07 02:05 44.52476 -77.66002 20059 ft 333 kts 240°
2026-05-07 02:05 44.51318 -77.68803 19821 ft 332 kts 241°
2026-05-07 02:05 44.50299 -77.71265 19600 ft 331 kts 241°
2026-05-07 02:06 44.49137 -77.74069 19354 ft 331 kts 241°
2026-05-07 02:06 44.47984 -77.76850 19115 ft 330 kts 241°
2026-05-07 02:06 44.46832 -77.79625 18872 ft 329 kts 241°
2026-05-07 02:06 44.45681 -77.82395 18619 ft 328 kts 241°
2026-05-07 02:07 44.44536 -77.85147 18413 ft 327 kts 241°
2026-05-07 02:07 44.42249 -77.90639 17883 ft 326 kts 241°
2026-05-07 02:07 44.41108 -77.93374 17621 ft 325 kts 241°
2026-05-07 02:08 44.39968 -77.96105 17352 ft 324 kts 241°
2026-05-07 02:08 44.38830 -77.98827 17086 ft 323 kts 241°
2026-05-07 02:08 44.37692 -78.01547 16821 ft 323 kts 241°
2026-05-07 02:08 44.36558 -78.04256 16562 ft 322 kts 241°
2026-05-07 02:09 44.35428 -78.06953 16307 ft 322 kts 241°
2026-05-07 02:09 44.34311 -78.09613 16050 ft 321 kts 241°
2026-05-07 02:09 44.33182 -78.12303 15796 ft 321 kts 241°
2026-05-07 02:09 44.32044 -78.15012 15541 ft 320 kts 241°
2026-05-07 02:10 44.30928 -78.17663 15300 ft 320 kts 241°
2026-05-07 02:10 44.29843 -78.20239 15054 ft 319 kts 241°
2026-05-07 02:10 44.28818 -78.22670 14824 ft 319 kts 241°
2026-05-07 02:10 44.27692 -78.25339 14576 ft 319 kts 241°
2026-05-07 02:11 44.26570 -78.27998 14329 ft 318 kts 241°
2026-05-07 02:11 44.25827 -78.29756 14176 ft 317 kts 242°
2026-05-07 02:11 44.24694 -78.32434 13944 ft 317 kts 242°
2026-05-07 02:11 44.23590 -78.35043 13701 ft 317 kts 242°
2026-05-07 02:12 44.22466 -78.37698 13431 ft 316 kts 242°
2026-05-07 02:12 44.21439 -78.40120 13174 ft 315 kts 242°
2026-05-07 02:12 44.20458 -78.42433 12939 ft 315 kts 242°
2026-05-07 02:12 44.19351 -78.45038 12679 ft 314 kts 242°
2026-05-07 02:13 44.18325 -78.47452 12425 ft 313 kts 242°
2026-05-07 02:13 44.17287 -78.49891 12187 ft 313 kts 241°
2026-05-07 02:13 44.16173 -78.52507 11937 ft 313 kts 241°
2026-05-07 02:13 44.15065 -78.55107 11669 ft 312 kts 241°
2026-05-07 02:14 44.14022 -78.57553 11423 ft 311 kts 241°
2026-05-07 02:14 44.12955 -78.60051 11189 ft 311 kts 241°
2026-05-07 02:14 44.11848 -78.62640 10936 ft 310 kts 241°
2026-05-07 02:14 44.10766 -78.65169 10692 ft 309 kts 241°
2026-05-07 02:15 44.09681 -78.67702 10467 ft 301 kts 241°
2026-05-07 02:15 44.08627 -78.70159 10214 ft 291 kts 241°
2026-05-07 02:15 44.07606 -78.72538 10045 ft 278 kts 242°
2026-05-07 02:15 44.06632 -78.74807 10021 ft 273 kts 242°
2026-05-07 02:16 44.05700 -78.76985 10019 ft 275 kts 242°
2026-05-07 02:16 44.04723 -78.79260 10020 ft 274 kts 240°
2026-05-07 02:16 44.03599 -78.81403 10022 ft 276 kts 232°
2026-05-07 02:16 44.02285 -78.83363 9982 ft 277 kts 230°
2026-05-07 02:17 44.00967 -78.85330 9708 ft 277 kts 231°
2026-05-07 02:17 43.99666 -78.87284 9358 ft 273 kts 231°
2026-05-07 02:17 43.98389 -78.89203 9005 ft 268 kts 231°
2026-05-07 02:17 43.97137 -78.91084 8661 ft 263 kts 231°
2026-05-07 02:18 43.95954 -78.92858 8340 ft 260 kts 231°
2026-05-07 02:18 43.94733 -78.94690 7998 ft 262 kts 231°
2026-05-07 02:18 43.93500 -78.96540 7645 ft 259 kts 231°
2026-05-07 02:18 43.92320 -78.98306 7146 ft 262 kts 231°
2026-05-07 02:19 43.91045 -79.00216 6581 ft 267 kts 231°
2026-05-07 02:19 43.89757 -79.02143 5997 ft 270 kts 231°
2026-05-07 02:19 43.88471 -79.04062 5410 ft 273 kts 231°
2026-05-07 02:19 43.87375 -79.06149 4838 ft 269 kts 250°
2026-05-07 02:20 43.87002 -79.08594 4292 ft 263 kts 273°
2026-05-07 02:20 43.87086 -79.11080 4069 ft 252 kts 274°
2026-05-07 02:20 43.87151 -79.13432 4017 ft 235 kts 274°
2026-05-07 02:20 43.87195 -79.15300 4024 ft 221 kts 274°
2026-05-07 02:21 43.87239 -79.17277 4022 ft 207 kts 274°
2026-05-07 02:21 43.87281 -79.19179 3957 ft 196 kts 274°
2026-05-07 02:21 43.87324 -79.21053 3873 ft 187 kts 274°
2026-05-07 02:21 43.87368 -79.22877 3794 ft 192 kts 274°
2026-05-07 02:22 43.87411 -79.24717 3791 ft 189 kts 274°
2026-05-07 02:22 43.87454 -79.26548 3943 ft 191 kts 274°
2026-05-07 02:22 43.87493 -79.28387 4014 ft 192 kts 273°
2026-05-07 02:22 43.87297 -79.30179 4017 ft 195 kts 252°
2026-05-07 02:23 43.86789 -79.31469 4017 ft 199 kts 239°
2026-05-07 02:23 43.85950 -79.32865 4019 ft 201 kts 232°
2026-05-07 02:23 43.85063 -79.34136 4025 ft 198 kts 231°
2026-05-07 02:23 43.84174 -79.35428 4013 ft 191 kts 231°
2026-05-07 02:24 43.83532 -79.36364 4047 ft 177 kts 232°
2026-05-07 02:24 43.82808 -79.37426 4028 ft 180 kts 232°
2026-05-07 02:24 43.82059 -79.38527 4024 ft 180 kts 232°
2026-05-07 02:24 43.81187 -79.39801 4018 ft 181 kts 232°
2026-05-07 02:25 43.80904 -79.40214 4021 ft 181 kts 232°
2026-05-07 02:25 43.80576 -79.40694 4023 ft 180 kts 232°
2026-05-07 02:25 43.79831 -79.41783 4022 ft 181 kts 232°
2026-05-07 02:25 43.78977 -79.43029 3954 ft 175 kts 232°
2026-05-07 02:26 43.78163 -79.44216 3723 ft 166 kts 232°
2026-05-07 02:26 43.77513 -79.45165 3548 ft 154 kts 232°
2026-05-07 02:26 43.76764 -79.46261 3327 ft 151 kts 231°
2026-05-07 02:26 43.76047 -79.47308 3107 ft 149 kts 231°
2026-05-07 02:27 43.75330 -79.48355 2895 ft 150 kts 231°
2026-05-07 02:27 43.74618 -79.49393 2686 ft 150 kts 231°
2026-05-07 02:27 43.73897 -79.50445 2478 ft 149 kts 230°
2026-05-07 02:27 43.73180 -79.51490 2259 ft 151 kts 231°
2026-05-07 02:28 43.72471 -79.52523 2059 ft 144 kts 230°
2026-05-07 02:28 43.71812 -79.53484 1864 ft 140 kts 230°
2026-05-07 02:28 43.71164 -79.54429 1683 ft 139 kts 230°
2026-05-07 02:28 43.70594 -79.55258 1498 ft 139 kts 230°
2026-05-07 02:29 43.69963 -79.56180 1301 ft 140 kts 229°
2026-05-07 02:29 43.69345 -79.57078 1108 ft 136 kts 229°
2026-05-07 02:29 43.68795 -79.57879 950 ft 133 kts 229°
2026-05-07 02:29 43.68292 -79.58611 819 ft 135 kts 228°
2026-05-07 02:30 43.67691 -79.59484 647 ft 133 kts 228°
2026-05-07 02:30 43.67287 -79.60078 571 ft 125 kts 229°
2026-05-07 02:30 43.66804 -79.60813 550 ft 53 kts 226°
2026-05-07 02:30 43.66718 -79.61037 550 ft 20 kts 252°
2026-05-07 02:31 43.66703 -79.61102 554 ft 0 kts 251°
2026-05-07 02:31 43.66702 -79.61105 553 ft 2 kts 251°
2026-05-07 02:31 43.66688 -79.61165 551 ft 11 kts 255°
2026-05-07 02:32 43.66708 -79.61272 546 ft 14 kts 317°
2026-05-07 02:32 43.66772 -79.61378 549 ft 16 kts 308°
2026-05-07 02:32 43.66853 -79.61480 549 ft 6 kts 287°
2026-05-07 02:32 43.66857 -79.61484 549 ft 1 kts 313°
2026-05-07 02:33 43.66870 -79.61495 551 ft 4 kts 328°
2026-05-07 02:33 43.66915 -79.61484 548 ft 10 kts 28°
2026-05-07 02:33 43.66977 -79.61405 554 ft 15 kts 48°
2026-05-07 02:33 43.67056 -79.61286 553 ft 19 kts 46°
2026-05-07 02:34 43.67118 -79.61220 554 ft 7 kts 13°
2026-05-07 02:34 43.67161 -79.61253 564 ft 8 kts 316°
2026-05-07 02:34 43.67212 -79.61279 556 ft 9 kts 11°
2026-05-07 02:34 43.67267 -79.61208 549 ft 14 kts 53°
2026-05-07 02:35 43.67341 -79.61101 549 ft 16 kts 15°
2026-05-07 02:35 43.67449 -79.61112 560 ft 16 kts 340°
2026-05-07 02:35 43.67483 -79.61226 563 ft 13 kts 289°
2026-05-07 02:35 43.67491 -79.61268 559 ft 1 kts 292°
2026-05-07 02:36 43.67514 -79.61280 559 ft 5 kts
2026-05-07 02:36 43.67565 -79.61266 560 ft 9 kts
2026-05-07 02:36 43.67591 -79.61261 563 ft 5 kts
2026-05-07 02:36 43.67600 -79.61259 562 ft 0 kts